User: anonymous   Login
Location: Fremont
(37.5480°N, 121.9880°W)
Time: 08:57:53
(UTC-08:00)
Language:

Cosmos 1766 - Orbit

View from above orbital plane
View from above orbital plane
View from above satellite
View from above satellite

Ground track
Ground track

The orbit data is extracted from the following two-line orbital elements,

1 16881U 86055A   18018.50372525 +.00001201 +00000-0 +71029-4 0  9992
2 16881 082.5058 173.0165 0018943 079.3777 280.9585 15.10380569692778
Epoch (UTC): 18 January 2018 12:05:21
Eccentricity: 0.0018943
inclination: 82.5058°
perigee height: 522 km
apogee height: 548 km
right ascension of ascending node: 173.0165°
argument of perigee: 79.3777°
revolutions per day: 15.10380569
mean anomaly at epoch: 280.9585°
orbit number at epoch: 69277

The dashed part of the orbit path shows where the satellite is in the earth's shadow,  

DLR